Weather History for Cambridge, MD

Change the Weather History Date:

Monday, April 1, 2013

  Actual Average (KESN) Record (KESN)
Temperature  
Mean Temperature 54 °F -  
Max Temperature 66 °F 63 °F 75 °F (2006)
Min Temperature 41 °F 38 °F 25 °F (1965)
Degree Days  
Heating Degree Days 12    
Growing Degree Days 4 (Base 50)    
Moisture  
Dew Point 39 °F    
Average Humidity 66    
Maximum Humidity 100    
Minimum Humidity 34    
Precipitation  
Precipitation 0.00 in - - ()
Sea Level Pressure  
Sea Level Pressure 29.79 in    
Wind  
Wind Speed 4 mph (WNW)    
Max Wind Speed 17 mph    
Max Gust Speed 24 mph    
Visibility 7 miles    
Events      
Averages and records for this station are not official NWS values.
T = Trace of Precipitation, MM = Missing Value Source: NWS Daily Summary

Daily Weather History Graph

Daily Weather History Graph

Search for Another Location

Airport:

Trip Planner

Search our weather history database for the weather conditions in past years. The results will help you decide how hot, cold, wet, or windy it might be!

Date:

Astronomy

Apr. 01, 2013 Rise Set
Actual Time 6:48 AM EDT 7:27 PM EDT
Civil Twilight 6:21 AM EDT 7:54 PM EDT
Nautical Twilight 5:50 AM EDT 8:26 PM EDT
Astronomical Twilight 5:18 AM EDT 8:58 PM EDT
Moon 12:30 AM EDT (4/1) 10:36 AM EDT (4/1)
Length of Visible Light 13h 32m
Length of Day
12h 39m
Waning Gibbous, 67% of the Moon is Illuminated
Apr 1
Waning Gibbous
Apr 3
Last Quarter
Apr 10
New
Apr 18
First Quarter
Apr 25
Full

Hourly Weather History & Observations

Time (EDT) Temp. Windchill Dew Point Humidity Pressure Visibility Wind Dir Wind Speed Gust Speed Precip Events Conditions
12:17 AM 50.0 °F - 46.4 °F 87% 29.79 in 7.0 mi Calm Calm - N/A   Overcast
12:57 AM 50.0 °F - 46.4 °F 87% 29.79 in 5.0 mi Calm Calm - N/A   Scattered Clouds
1:17 AM 50.0 °F - 46.4 °F 87% 29.78 in 1.0 mi Calm Calm - N/A   Mostly Cloudy
1:37 AM 46.4 °F - 44.6 °F 93% 29.78 in 0.2 mi Calm Calm - N/A   Overcast
1:57 AM 46.4 °F - 44.6 °F 93% 29.78 in 0.2 mi Calm Calm - N/A   Overcast
2:17 AM 44.6 °F - 42.8 °F 93% 29.78 in 0.2 mi Calm Calm - N/A   Overcast
2:37 AM 44.6 °F - 42.8 °F 93% 29.77 in 0.2 mi Calm Calm - N/A   Mostly Cloudy
2:57 AM 42.8 °F - 41.0 °F 93% 29.78 in 0.2 mi Calm Calm - N/A   Overcast
3:17 AM 41.0 °F - 41.0 °F 100% 29.77 in 0.2 mi Calm Calm - N/A   Overcast
3:37 AM 42.8 °F - 41.0 °F 93% 29.76 in 0.8 mi Calm Calm - N/A   Overcast
3:57 AM 42.8 °F - 41.0 °F 93% 29.77 in 1.5 mi Calm Calm - N/A   Overcast
4:17 AM 42.8 °F - 41.0 °F 93% 29.77 in 4.0 mi Calm Calm - N/A   Mostly Cloudy
4:37 AM 42.8 °F - 41.0 °F 93% 29.77 in 4.0 mi Calm Calm - N/A   Mostly Cloudy
4:57 AM 44.6 °F - 42.8 °F 93% 29.78 in 3.0 mi Calm Calm - N/A   Mostly Cloudy
5:17 AM 46.4 °F - 44.6 °F 93% 29.78 in 2.5 mi Calm Calm - N/A   Overcast
5:37 AM 46.4 °F - 44.6 °F 93% 29.78 in 2.0 mi Calm Calm - N/A   Overcast
6:16 AM 44.6 °F - 42.8 °F 93% 29.77 in 0.2 mi Calm Calm - N/A   Overcast
6:37 AM 42.8 °F - 41.0 °F 93% 29.77 in 0.2 mi Calm Calm - N/A   Overcast
6:57 AM 41.0 °F - 41.0 °F 100% 29.78 in 0.2 mi Calm Calm - N/A   Overcast
7:17 AM 41.0 °F - 41.0 °F 100% 29.79 in 0.2 mi Calm Calm - N/A   Overcast
7:37 AM 41.0 °F - 41.0 °F 100% 29.79 in 0.2 mi Calm Calm - N/A   Overcast
7:58 AM 42.8 °F 40.1 °F 41.0 °F 93% 29.79 in 0.2 mi SE 4.6 mph - N/A   Overcast
8:18 AM 46.4 °F - 44.6 °F 93% 29.79 in 0.2 mi Calm Calm - N/A   Overcast
8:38 AM 50.0 °F - 48.2 °F 94% 29.79 in 3.0 mi SSW 3.5 mph - N/A   Unknown
8:58 AM 50.0 °F - 50.0 °F 100% 29.79 in 5.0 mi WSW 5.8 mph - N/A   Clear
9:18 AM 51.8 °F - 50.0 °F 94% 29.80 in 7.0 mi West 3.5 mph - N/A   Clear
9:38 AM 53.6 °F - 51.8 °F 94% 29.79 in 10.0 mi Calm Calm - N/A   Clear
9:58 AM 55.4 °F - 46.4 °F 72% 29.78 in 10.0 mi SW 4.6 mph - N/A   Clear
10:18 AM 55.4 °F - 44.6 °F 67% 29.78 in 10.0 mi WSW 5.8 mph - N/A   Clear
10:38 AM 59.0 °F - 44.6 °F 59% 29.78 in 10.0 mi SSW 4.6 mph - N/A   Clear
10:58 AM 59.0 °F - 42.8 °F 55% 29.78 in 10.0 mi West 6.9 mph - N/A   Clear
11:18 AM 60.8 °F - 39.2 °F 45% 29.78 in 10.0 mi SW 8.1 mph - N/A   Clear
11:38 AM 60.8 °F - 39.2 °F 45% 29.77 in 10.0 mi SW 9.2 mph - N/A   Clear
11:58 AM 60.8 °F - 37.4 °F 42% 29.76 in 10.0 mi WSW 9.2 mph - N/A   Clear
12:18 PM 62.6 °F - 37.4 °F 39% 29.76 in 10.0 mi SW 12.7 mph - N/A   Clear
12:38 PM 62.6 °F - 37.4 °F 39% 29.74 in 10.0 mi SW 9.2 mph - N/A   Clear
12:58 PM 62.6 °F - 35.6 °F 37% 29.74 in 10.0 mi WSW 9.2 mph 17.3 mph N/A   Clear
1:18 PM 64.4 °F - 37.4 °F 37% 29.74 in 10.0 mi SW 6.9 mph - N/A   Clear
1:38 PM 64.4 °F - 37.4 °F 37% 29.73 in 10.0 mi WSW 8.1 mph - N/A   Clear
1:58 PM 64.4 °F - 37.4 °F 37% 29.72 in 10.0 mi SW 10.4 mph 19.6 mph N/A   Scattered Clouds
2:18 PM 64.4 °F - 37.4 °F 37% 29.71 in 10.0 mi SW 4.6 mph - N/A   Scattered Clouds
2:38 PM 66.2 °F - 37.4 °F 35% 29.71 in 10.0 mi West 10.4 mph 17.3 mph N/A   Scattered Clouds
2:58 PM 64.4 °F - 35.6 °F 34% 29.70 in 10.0 mi WNW 13.8 mph - N/A   Scattered Clouds
3:18 PM 64.4 °F - 37.4 °F 37% 29.69 in 10.0 mi WNW 13.8 mph - N/A   Clear
3:38 PM 62.6 °F - 37.4 °F 39% 29.71 in 10.0 mi WNW 15.0 mph 18.4 mph N/A   Scattered Clouds
3:58 PM 59.0 °F - 41.0 °F 51% 29.73 in 10.0 mi NW 13.8 mph 19.6 mph N/A   Scattered Clouds
4:18 PM 57.2 °F - 42.8 °F 59% 29.73 in 10.0 mi NW 11.5 mph 19.6 mph N/A   Clear
4:39 PM 59.0 °F - 41.0 °F 51% 29.74 in 10.0 mi WNW 13.8 mph 20.7 mph N/A   Clear
4:59 PM 55.4 °F - 39.2 °F 54% 29.74 in 10.0 mi NW 13.8 mph 20.7 mph N/A   Clear
5:19 PM 55.4 °F - 41.0 °F 58% 29.76 in 10.0 mi NW 12.7 mph 20.7 mph N/A   Clear
5:39 PM 55.4 °F - 39.2 °F 54% 29.77 in 10.0 mi NNW 15.0 mph 19.6 mph N/A   Clear
5:59 PM 55.4 °F - 37.4 °F 51% 29.79 in 10.0 mi NW 12.7 mph 19.6 mph N/A   Clear
6:19 PM 53.6 °F - 35.6 °F 51% 29.79 in 10.0 mi WNW 9.2 mph 19.6 mph N/A   Clear
6:39 PM 53.6 °F - 35.6 °F 51% 29.81 in 10.0 mi NW 9.2 mph 20.7 mph N/A   Clear
6:59 PM 51.8 °F - 35.6 °F 54% 29.82 in 10.0 mi NW 8.1 mph - N/A   Scattered Clouds
7:19 PM 51.8 °F - 33.8 °F 50% 29.84 in 10.0 mi NW 16.1 mph 23.0 mph N/A   Scattered Clouds
7:59 PM 50.0 °F - 32.0 °F 50% 29.86 in 10.0 mi NW 10.4 mph - N/A   Scattered Clouds
8:19 PM 50.0 °F - 32.0 °F 50% 29.87 in 10.0 mi NW 13.8 mph 24.2 mph N/A   Scattered Clouds
8:39 PM 50.0 °F - 32.0 °F 50% 29.89 in 10.0 mi NW 17.3 mph 24.2 mph N/A   Clear
8:59 PM 50.0 °F - 30.2 °F 47% 29.90 in 10.0 mi NW 12.7 mph 19.6 mph N/A   Clear
9:19 PM 48.2 °F - 30.2 °F 50% 29.91 in 10.0 mi NNW 12.7 mph 21.9 mph N/A   Clear
9:39 PM 46.4 °F 40.1 °F 26.6 °F 46% 29.91 in 10.0 mi NW 15.0 mph 23.0 mph N/A   Clear
9:59 PM 46.4 °F 41.5 °F 28.4 °F 50% 29.92 in 10.0 mi NW 10.4 mph 16.1 mph N/A   Clear
10:19 PM 46.4 °F 41.5 °F 28.4 °F 50% 29.93 in 10.0 mi NW 10.4 mph 20.7 mph N/A   Clear
10:59 PM 44.6 °F 38.4 °F 24.8 °F 46% 29.94 in 10.0 mi NW 12.7 mph 17.3 mph N/A   Clear
11:19 PM 44.6 °F 38.8 °F 24.8 °F 46% 29.94 in 10.0 mi NW 11.5 mph - N/A   Clear
11:39 PM 44.6 °F 39.7 °F 23.0 °F 43% 29.95 in 10.0 mi NNW 9.2 mph 16.1 mph N/A   Clear
11:59 PM 42.8 °F 36.6 °F 23.0 °F 46% 29.95 in 10.0 mi NW 11.5 mph - N/A   Clear